Theta_e
332 331 330 329 330 332 332 332 332 333 331 330 328 327 327 326 323 322 322 321 320 319 321 317 317 316 318 319 320 317 313 313 314 316 312 312 314 311 311 309 310 308 306 305 304 300 298 296 296 300 299 300 302 300 304 302 301 301 301 301 301 298 298
333 331 330 329 329 331 331 330 331 329 328 326 326 325 324 323 324 320 319 319 318 319 321 316 315 315 315 317 316 313 311 311 312 313 312 311 312 308 306 304 306 305 304 305 304 301 298 294 295 296 297 299 302 300 301 301 302 303 304 305 308 301 303
332 329 329 328 328 330 329 328 328 326 324 323 322 322 322 321 320 319 317 317 316 318 318 314 314 313 314 315 314 312 312 311 311 311 310 308 308 306 307 305 303 302 303 303 301 299 300 297 296 296 296 297 297 298 300 299 298 299 297 297 296 296 297
331 330 329 329 329 328 327 326 325 324 322 320 319 318 319 318 317 318 316 315 317 322 316 313 313 313 313 313 312 312 310 309 308 307 307 306 306 304 303 305 306 307 304 301 302 300 298 295 295 296 296 298 296 294 296 297 296 295 295 295 296 297 297
332 331 330 329 329 328 327 325 323 321 319 318 317 316 316 316 317 315 317 315 315 312 312 313 313 313 313 311 310 309 308 307 307 307 305 304 303 302 301 301 300 301 300 302 303 302 301 298 299 297 297 298 298 296 299 294 294 295 295 295 296 297 297
333 332 332 330 330 328 326 324 322 320 317 316 315 315 314 315 316 314 313 312 312 313 314 313 313 313 312 311 309 308 306 305 305 305 304 303 303 302 300 299 300 300 299 299 302 301 300 300 300 297 296 295 293 293 293 292 293 294 296 297 297 298 297
333 333 332 331 330 328 326 324 323 320 318 317 316 315 314 315 314 314 313 312 312 313 314 313 312 312 311 309 308 306 304 304 304 303 303 302 301 300 300 300 299 299 298 299 299 300 300 300 298 300 296 292 291 291 292 291 293 294 296 295 297 299 298
333 333 332 331 329 327 326 325 324 321 320 318 316 315 316 314 313 312 312 311 312 312 313 313 313 311 311 309 308 306 305 304 304 304 302 301 301 299 299 300 301 299 299 297 297 298 300 301 300 299 296 292 290 291 292 292 291 293 293 293 296 299 298
333 332 331 330 329 328 326 325 323 322 320 317 317 316 316 314 312 311 312 311 311 311 312 312 310 309 308 307 306 305 305 306 303 302 301 301 300 300 299 299 299 298 298 297 297 296 296 298 300 298 297 294 292 288 290 290 290 292 295 295 296 297 297
332 331 330 329 329 327 326 324 323 321 319 318 317 317 314 312 311 310 310 310 311 312 311 311 310 308 308 307 305 304 303 303 303 301 300 300 299 299 298 298 298 297 297 298 297 297 297 296 297 295 294 295 294 292 287 288 290 289 294 295 295 296 297
331 331 330 329 328 327 325 323 321 319 319 318 318 316 313 310 310 313 310 311 311 311 310 309 308 308 307 305 304 303 302 302 302 301 301 300 299 299 300 298 298 296 296 296 296 296 296 296 295 296 294 294 294 294 288 288 289 290 293 294 295 296 296
330 330 329 329 327 326 324 323 321 320 319 318 316 313 311 310 309 309 310 310 310 310 309 308 308 306 305 303 303 302 302 301 300 299 299 300 299 299 297 296 296 295 295 296 296 296 296 297 296 296 295 296 296 295 293 291 290 292 293 293 294 296 297
329 329 328 327 326 325 324 323 321 319 318 318 315 312 310 309 309 308 309 310 309 308 307 307 306 304 303 303 302 302 301 300 300 300 299 299 299 298 297 296 296 296 295 295 295 295 295 297 296 296 296 296 295 294 294 290 291 292 293 294 294 295 296
328 328 327 326 326 325 324 323 322 320 318 316 313 311 309 308 308 309 308 309 308 307 306 305 304 303 303 302 301 301 300 300 300 299 300 298 298 298 298 297 295 295 295 295 294 295 295 295 296 296 297 296 296 296 295 292 291 292 292 293 294 295 295
327 327 326 326 325 325 323 323 321 319 317 315 312 310 309 308 308 308 308 307 307 307 306 305 303 303 302 301 301 302 300 300 299 298 298 297 297 298 296 296 295 294 294 294 294 295 295 295 295 295 296 297 297 297 295 291 290 288 289 292 293 293 293
327 326 326 325 325 324 323 322 321 318 317 314 312 310 309 308 307 307 307 306 306 305 304 303 303 302 302 302 301 300 301 299 299 298 298 297 296 296 296 296 295 296 297 295 294 294 294 295 296 296 296 297 297 297 296 293 290 289 290 291 292 291 291
327 326 325 325 324 323 323 321 320 318 316 313 311 310 309 308 307 306 306 305 304 304 304 303 303 302 302 302 301 300 299 299 298 298 298 297 296 297 296 296 295 295 296 294 293 293 294 295 296 297 296 296 296 295 294 293 291 289 289 291 291 292 292
326 325 324 324 323 322 322 320 318 317 314 312 311 310 309 308 306 306 305 304 304 303 304 303 302 302 301 301 301 300 299 298 298 298 297 297 302 297 297 296 295 295 294 294 293 293 294 294 294 295 295 295 294 294 293 292 292 291 290 289 290 290 290
325 325 324 323 322 322 321 319 317 316 315 313 311 310 308 307 306 305 305 304 304 304 303 303 302 302 301 301 300 300 299 299 298 298 297 298 298 297 297 296 295 295 294 294 293 293 293 292 292 293 292 292 292 291 291 291 292 292 291 288 288 290 289
325 324 323 322 322 321 319 318 317 315 315 313 311 310 308 306 306 305 304 304 304 303 303 302 302 301 301 300 300 299 299 298 298 298 297 298 297 296 296 296 295 295 295 294 293 293 292 292 293 291 292 291 290 290 290 290 291 290 290 288 288 288 288
325 324 323 322 320 320 319 317 316 315 314 312 311 309 307 306 305 305 304 304 304 304 303 302 301 301 300 300 300 299 299 299 298 297 297 296 296 295 295 296 295 295 295 294 293 292 292 292 292 291 289 290 289 289 289 289 289 289 288 287 287 288 286
324 323 320 320 319 318 318 317 316 315 314 312 312 310 308 307 305 303 303 303 303 303 302 302 302 301 300 299 299 299 299 299 299 298 296 294 294 294 294 294 294 293 298 301 301 298 297 297 291 290 288 289 289 289 288 288 288 287 286 287 287 286 285
323 321 320 319 318 318 317 316 315 314 313 312 311 309 307 306 304 303 302 302 302 303 302 302 306 305 304 301 299 299 299 299 298 297 296 294 293 293 293 292 297 304 305 305 303 300 298 299 298 293 289 289 289 288 287 287 286 286 287 286 286 285 286
321 320 320 319 318 317 317 316 315 314 313 312 310 308 307 304 303 303 303 302 302 302 302 303 302 298 298 301 301 299 299 298 297 296 295 294 293 292 291 292 296 305 306 306 301 298 297 296 296 296 296 296 294 289 287 286 286 286 289 286 285 285 285
320 319 319 318 318 317 317 315 314 313 312 310 309 307 305 304 303 302 302 302 301 302 301 304 297 297 297 298 301 300 299 298 297 295 294 293 292 292 292 294 295 297 295 295 295 296 297 296 295 295 295 295 295 295 294 290 290 285 284 285 284 285 285
320 319 318 318 317 317 316 315 314 312 311 310 308 306 304 303 302 301 302 301 301 301 300 299 296 297 296 296 297 300 299 298 297 295 294 293 292 292 294 295 294 293 294 302 298 292 293 293 295 295 295 295 294 292 291 292 294 291 286 286 287 285 286
319 318 318 317 317 317 316 314 314 313 311 309 307 306 303 302 301 301 301 301 301 300 300 299 296 296 296 295 295 297 298 298 297 295 294 293 293 293 293 293 293 293 294 297 292 292 293 293 294 294 292 289 291 296 293 291 292 293 293 289 287 287 288
318 318 318 317 317 316 316 314 313 312 311 309 307 305 303 301 300 301 301 300 300 300 301 297 295 295 295 295 295 297 299 298 296 295 294 293 293 293 294 295 294 294 296 298 294 294 294 294 294 294 291 290 290 290 290 291 291 290 292 291 289 289 289
317 316 317 317 316 316 315 314 313 311 310 309 308 306 304 303 301 301 301 301 301 300 300 295 294 295 295 294 295 300 298 298 296 295 294 293 294 294 295 297 297 296 296 298 300 296 297 294 292 291 291 290 290 290 290 296 294 294 293 291 290 290 290
317 316 316 316 316 315 314 313 312 311 309 308 306 304 303 302 302 302 301 301 301 301 300 296 294 295 294 294 297 299 298 298 296 295 295 297 297 296 297 297 297 296 296 297 298 293 293 295 292 291 290 290 290 288 289 290 294 293 293 292 292 292 292
317 316 316 316 315 315 315 313 312 310 309 307 306 305 303 303 302 302 302 301 302 301 300 297 294 294 294 294 299 298 298 298 297 297 297 298 298 296 296 302 301 297 296 296 294 292 291 294 292 292 292 290 288 287 288 288 289 290 292 292 292 292 291
317 316 316 316 316 314 314 313 312 310 310 308 307 305 304 302 302 301 302 302 305 302 300 298 294 294 294 294 298 299 299 299 298 298 298 298 298 297 296 301 304 300 297 296 292 291 291 293 291 293 292 290 289 287 289 286 287 288 288 289 289 290 291
316 316 316 315 315 314 313 312 310 310 308 308 306 304 303 302 301 301 301 301 302 302 300 299 297 293 294 294 297 301 300 299 299 298 298 298 298 296 296 296 301 295 293 292 291 290 290 291 292 292 291 291 290 290 290 287 288 286 288 291 288 290 291
314 314 315 315 314 313 312 311 310 309 308 306 305 303 302 302 301 301 300 301 301 300 300 299 298 293 294 294 296 299 300 300 299 300 298 299 298 297 296 297 299 297 292 291 290 289 290 291 293 294 292 291 292 293 290 287 293 297 290 291 292 292 291
314 315 315 315 313 311 311 311 310 309 307 305 304 303 302 301 301 300 299 300 300 300 301 301 299 294 294 294 295 297 300 300 300 299 298 297 297 297 297 297 297 297 292 291 290 289 290 290 291 296 293 292 291 290 291 292 291 292 291 292 290 291 291
314 315 314 314 313 311 310 310 309 308 306 305 304 302 302 301 300 299 299 299 300 300 300 301 297 296 294 294 294 295 296 298 295 300 298 297 296 297 297 297 298 298 292 291 290 289 289 290 291 293 292 290 290 289 292 291 289 289 289 289 290 290 290
315 314 314 313 312 311 310 309 308 307 306 305 304 303 302 301 300 299 298 298 299 299 299 299 296 295 295 293 294 294 294 295 295 298 298 297 296 296 297 297 296 293 291 291 290 289 289 290 291 291 290 290 289 290 292 290 288 288 289 289 288 288 289
Wind_Speed
9 8 6 5 3 5 6 5 5 4 4 4 5 4 4 5 5 5 5 5 5 4 4 5 5 4 4 2 3 3 4 5 7 8 6 6 9 4 1 3 4 5 4 3 6 9 6 7 2 1 1 2 2 1 0 1 2 3 3 3 3 4 5
7 7 6 5 6 5 6 5 5 5 4 3 4 4 4 5 4 5 5 5 5 4 4 5 3 3 5 6 5 5 5 3 3 4 7 8 6 6 4 3 5 4 3 3 4 3 5 5 0 2 2 1 1 2 3 1 1 1 2 2 2 4 4
6 6 6 7 6 6 6 6 5 5 5 4 4 4 4 4 5 5 5 5 5 4 4 5 4 3 3 3 3 4 4 5 2 4 6 6 4 4 3 7 5 3 4 2 2 4 5 3 8 6 4 4 2 2 4 6 4 4 3 3 4 4 4
10 9 8 7 6 6 7 6 6 5 5 5 5 4 4 4 4 4 5 4 4 4 5 4 4 4 3 4 4 4 3 5 5 6 5 3 5 4 3 5 8 9 8 6 7 4 4 4 5 3 1 2 3 6 3 2 4 4 3 3 4 5 4
12 9 10 9 9 8 8 7 5 5 5 5 5 5 5 4 5 4 4 4 5 5 4 4 4 4 4 4 4 4 4 3 4 5 5 6 5 5 4 3 4 4 3 5 6 6 7 7 9 7 6 2 3 2 1 3 4 4 3 3 3 4 4
11 11 10 10 9 8 8 8 7 7 6 6 5 6 4 5 5 6 5 5 4 3 4 4 4 4 4 4 5 5 5 5 5 6 6 4 5 6 6 3 5 5 4 2 6 6 5 6 9 8 1 1 6 4 1 1 1 1 0 4 4 5 5
10 10 9 10 9 8 8 8 8 8 8 7 7 6 6 5 4 4 5 4 4 4 4 5 4 3 4 4 4 6 5 4 5 6 7 6 6 5 4 6 4 5 3 3 4 6 7 8 7 10 7 3 3 3 1 3 2 2 1 2 4 5 5
10 9 9 8 8 8 7 8 7 6 7 6 7 5 5 5 4 5 4 5 5 5 5 5 5 5 5 4 4 5 5 4 6 7 6 7 7 6 5 6 6 5 4 3 4 5 6 9 10 9 10 10 3 4 3 2 2 2 1 1 3 5 4
9 9 8 7 7 7 8 9 7 7 5 6 5 6 5 5 5 5 4 5 4 5 5 6 6 5 5 6 5 5 6 2 7 7 6 7 7 6 7 5 7 4 3 4 4 5 5 5 7 8 9 10 12 4 1 2 2 1 0 2 3 4 4
12 11 10 10 9 7 7 7 8 7 6 5 6 5 6 4 5 5 6 5 5 5 5 5 6 5 4 5 6 6 6 4 6 7 5 7 5 6 6 6 7 6 4 4 4 5 5 5 5 4 4 10 9 10 4 2 0 1 1 0 2 3 3
11 11 10 10 9 8 7 6 7 7 7 6 6 6 6 6 5 5 6 5 5 5 6 5 5 6 6 5 5 5 5 6 7 5 5 6 6 6 6 6 5 6 3 4 5 4 5 5 5 4 4 3 5 11 6 6 2 2 0 1 0 2 3
10 10 9 9 9 9 9 8 9 8 7 6 7 7 7 6 5 5 5 6 5 6 5 5 6 6 5 6 5 6 4 6 7 6 4 6 4 6 7 7 5 5 4 5 4 5 4 6 6 6 5 5 2 6 8 6 5 2 1 2 1 0 2
10 10 10 10 10 10 10 9 9 9 8 7 7 7 7 6 6 6 5 6 6 5 6 5 5 6 5 6 6 6 5 6 7 7 4 4 4 6 7 7 5 5 4 5 5 5 5 5 4 6 6 6 5 4 7 5 6 4 2 1 1 2 2
11 10 10 10 11 10 10 9 9 8 7 7 8 7 7 6 6 6 6 6 6 6 6 5 4 5 5 5 5 6 5 6 7 5 5 5 4 5 6 6 4 4 4 6 5 5 6 5 5 6 5 6 6 3 7 6 7 5 1 0 1 2 2
10 10 11 10 10 10 10 9 9 8 9 7 8 8 7 6 6 7 7 6 6 6 6 6 5 5 6 6 5 4 6 6 6 5 5 5 4 5 5 6 5 4 4 6 5 6 6 6 5 6 4 5 5 4 2 6 4 4 3 2 5 3 2
11 11 12 10 10 10 9 9 8 10 8 8 6 7 7 7 7 6 6 6 6 6 6 6 5 5 6 7 7 5 5 6 7 7 6 5 5 5 6 6 5 5 5 6 4 4 4 5 4 6 5 4 6 5 4 4 6 4 5 2 0 2 2
13 12 12 10 11 10 9 9 8 9 9 8 8 5 6 7 7 7 7 6 6 6 6 5 5 5 6 6 6 6 5 5 5 5 6 6 6 6 7 7 5 6 5 7 4 4 3 4 5 5 5 4 6 5 3 4 4 5 2 4 1 0 2
13 13 12 9 11 10 10 9 8 9 9 8 7 7 6 6 7 7 7 7 7 6 6 6 6 5 4 5 6 6 6 5 5 5 5 6 6 6 6 7 6 5 6 8 4 5 4 5 4 5 5 4 6 4 4 5 5 5 6 4 1 1 1
13 13 12 11 11 11 10 10 10 9 10 10 8 7 8 7 7 7 6 7 7 6 6 6 6 6 6 5 5 5 5 5 5 5 5 4 5 5 6 6 5 6 7 8 6 4 4 5 4 5 5 5 5 5 7 6 6 6 7 3 2 1 2
12 12 11 11 10 10 10 10 10 10 9 10 10 9 7 7 5 7 7 7 7 7 6 6 6 6 6 6 6 6 6 5 5 5 4 4 4 4 5 6 6 6 7 7 7 6 6 5 5 5 6 6 5 7 7 6 6 6 5 4 1 1 1
12 12 11 11 11 10 9 10 10 9 9 10 9 9 10 9 6 6 7 7 6 6 6 6 5 6 6 6 6 6 6 6 6 4 4 4 4 4 5 5 5 5 7 7 7 6 7 7 5 5 4 5 6 7 7 6 6 6 5 3 2 1 1
11 11 10 10 11 11 10 10 10 9 9 9 8 8 8 8 8 7 6 6 7 6 7 7 6 7 7 6 6 7 7 7 6 6 4 4 4 4 4 4 4 5 6 8 9 8 7 8 7 7 4 5 7 8 6 6 6 6 4 5 2 1 1
11 12 11 11 11 11 10 10 10 10 10 9 9 8 8 8 8 8 8 6 6 6 6 5 7 12 9 8 7 6 6 6 6 6 6 5 4 4 4 4 5 10 10 10 9 9 9 8 7 7 8 7 8 8 7 7 6 6 6 5 2 2 2
12 13 13 11 11 11 11 10 10 10 9 9 9 9 9 9 7 7 8 8 7 6 6 5 11 12 13 12 8 7 7 6 5 6 6 6 6 5 4 4 4 6 7 8 6 10 9 8 8 9 9 9 8 10 8 7 6 5 3 3 3 2 1
11 10 12 12 12 11 11 11 11 10 10 9 8 8 9 9 8 7 7 7 7 6 6 8 13 13 13 13 10 8 6 6 6 5 6 6 5 4 4 3 3 3 4 5 5 6 8 8 8 8 9 9 8 7 7 7 5 3 3 4 3 2 2
14 12 11 12 12 11 11 11 11 10 11 10 9 9 9 8 8 7 7 8 7 6 5 9 13 13 13 13 12 9 6 6 7 6 5 6 5 5 4 4 3 3 3 10 7 5 6 5 6 8 7 7 6 8 6 6 6 4 6 4 3 2 5
13 14 13 11 11 12 12 12 11 10 9 9 10 9 8 9 7 7 8 8 7 6 6 9 13 13 13 13 12 10 6 7 6 6 6 6 5 5 5 6 5 4 3 4 4 5 4 4 4 3 3 3 3 4 5 6 6 8 7 5 5 2 4
13 13 14 14 12 11 12 11 11 10 9 10 10 10 10 9 7 7 7 7 7 7 6 11 13 14 13 13 13 9 6 6 6 5 5 5 6 6 5 5 5 4 3 3 4 4 5 4 4 4 3 3 2 3 4 4 4 5 4 4 4 5 4
12 11 13 13 13 12 11 12 12 10 9 8 8 8 7 8 9 9 8 8 7 8 6 12 14 14 14 13 13 7 7 7 6 5 5 4 4 3 4 5 4 5 6 6 6 8 7 5 4 4 3 1 1 1 2 5 7 7 6 6 6 6 6
13 13 12 13 12 12 11 11 10 9 9 9 9 9 9 9 9 9 8 8 9 8 7 11 14 15 14 15 11 6 6 6 6 6 6 5 6 7 7 9 9 8 7 6 7 9 9 8 5 4 4 2 1 3 2 0 3 7 9 9 9 10 8
14 13 13 14 13 11 10 9 10 9 10 10 9 9 9 7 7 8 10 9 10 9 8 10 15 14 15 16 12 8 7 7 6 7 7 6 6 6 7 12 10 8 7 7 9 11 11 8 5 5 5 4 4 4 3 1 0 1 3 6 8 9 9
14 14 12 11 12 12 11 10 8 8 8 8 9 8 8 8 7 7 8 9 10 10 7 8 13 14 15 16 11 7 8 7 7 5 5 6 6 6 5 9 13 9 8 8 11 11 12 8 6 6 6 5 5 5 7 4 4 3 1 0 1 1 2
14 14 14 12 10 10 9 8 9 9 7 7 7 7 7 9 10 8 7 6 7 8 8 7 11 14 14 14 14 10 6 8 7 9 8 7 6 5 5 5 8 12 13 12 13 13 12 11 7 6 5 6 6 8 6 4 4 4 3 3 3 2 3
8 6 9 12 11 9 8 9 9 9 8 7 7 6 7 7 8 7 6 7 8 6 7 9 10 14 13 14 14 13 7 9 9 8 8 8 7 8 7 6 6 10 13 12 13 13 12 12 9 7 7 7 9 5 6 4 4 6 3 3 1 1 2
10 10 9 10 11 11 9 9 9 9 7 8 9 9 7 6 7 7 6 6 7 8 7 10 9 13 15 16 16 16 9 8 9 8 7 7 6 6 7 7 7 9 13 12 12 12 12 11 11 6 8 9 7 7 9 4 3 3 2 2 2 2 2
11 8 8 9 11 11 10 10 9 9 9 9 9 9 8 7 7 7 6 5 5 6 6 7 9 9 13 14 14 14 14 10 10 8 8 8 7 8 6 7 8 11 13 13 12 13 12 13 9 8 11 9 8 10 6 3 3 3 2 2 1 3 3
10 9 10 10 10 11 11 10 10 9 9 10 9 9 7 7 6 7 7 5 4 5 5 5 7 10 10 14 14 16 15 14 13 9 8 7 7 7 8 7 7 10 12 14 14 13 13 12 9 12 10 9 9 6 3 3 3 3 2 2 2 3 4
Wind_Direction
174 165 158 144 126 135 136 134 131 127 128 137 138 131 133 134 134 132 134 132 129 136 134 131 136 134 126 140 164 153 159 174 173 166 172 172 175 194 50 75 70 92 103 53 147 162 147 153 229 306 299 331 5 331 9 3 3 35 44 41 38 24 22
158 152 135 129 137 138 133 131 132 123 114 108 122 133 132 133 133 134 131 127 125 125 117 118 118 136 153 160 142 142 159 163 182 163 153 183 184 174 124 67 83 83 58 65 84 76 136 122 185 185 219 347 356 347 358 34 37 86 94 67 46 27 30
144 129 138 142 143 148 144 143 134 129 124 114 113 124 125 125 128 129 127 130 131 129 124 130 126 123 136 135 140 143 147 135 105 144 160 159 161 144 145 148 124 97 71 66 64 95 60 77 158 186 196 161 134 340 6 46 70 69 53 37 30 24 39
152 148 148 148 145 149 149 147 144 134 126 128 125 120 126 129 125 125 126 127 129 125 123 126 134 137 134 124 116 115 128 137 138 119 107 110 122 115 118 154 162 168 168 172 183 177 140 129 91 128 114 112 147 88 6 22 81 65 49 28 30 37 46
157 162 164 162 164 161 153 150 139 126 124 122 125 128 130 134 127 120 122 121 122 123 121 126 126 124 119 116 116 120 113 102 113 114 119 122 114 100 88 102 120 123 130 154 169 152 146 157 144 153 140 131 64 77 152 65 55 60 36 18 12 50 49
163 166 168 167 170 163 159 153 153 149 143 136 152 143 151 147 139 131 134 133 128 124 127 123 122 119 123 118 121 115 115 123 131 129 124 123 126 126 126 94 111 107 96 111 131 133 100 123 133 123 111 109 133 144 356 56 105 314 172 43 29 43 51
166 168 171 171 172 165 163 163 163 161 162 161 157 161 157 147 140 140 134 124 123 125 125 122 120 113 104 109 119 115 113 113 110 109 110 109 99 108 121 108 89 96 90 91 131 132 135 127 139 140 135 56 94 115 344 26 340 88 357 8 33 51 47
165 170 173 174 170 164 164 161 158 155 162 160 153 144 145 139 134 127 130 128 133 132 128 119 105 103 104 99 99 105 103 115 111 111 112 116 113 114 104 110 107 81 90 97 113 130 151 155 150 153 138 127 72 36 42 11 348 58 217 295 37 51 44
165 166 168 171 170 167 164 161 155 155 154 142 133 138 139 139 139 134 129 133 135 127 121 121 124 121 121 120 114 116 111 117 113 107 115 110 112 113 108 109 93 87 87 96 96 112 117 134 142 154 146 142 141 134 36 43 5 359 317 87 46 47 44
168 171 173 172 168 161 159 154 148 147 140 145 139 139 137 137 143 141 137 136 131 126 119 119 121 120 119 123 128 123 116 116 108 114 120 110 115 111 99 99 108 110 96 93 84 84 97 104 117 133 154 155 152 134 146 114 246 164 323 299 104 10 31
170 172 171 169 161 154 151 143 137 142 160 156 144 142 139 141 145 142 137 136 131 124 123 122 121 121 126 119 121 115 123 121 108 101 109 114 116 108 103 93 100 97 93 87 91 89 88 100 105 117 111 86 136 146 155 134 159 202 187 340 23 82 20
169 169 168 163 159 160 160 161 161 153 142 144 142 142 143 146 145 144 142 135 133 128 123 127 125 123 129 122 121 120 121 118 115 114 118 115 124 111 108 100 94 97 94 95 85 78 79 87 98 100 94 105 91 133 131 126 120 250 141 67 355 357 64
166 167 165 162 166 166 165 165 156 149 157 151 149 147 149 154 154 149 144 137 133 130 128 128 130 127 122 124 131 126 130 121 119 123 120 108 119 113 111 108 106 114 110 97 86 79 79 68 83 87 93 94 93 112 118 111 112 146 216 117 80 21 74
165 163 163 168 166 167 166 164 160 154 142 155 149 151 156 157 156 148 143 143 142 141 138 135 131 126 125 127 128 128 130 128 124 129 127 112 103 109 109 108 105 108 117 102 102 95 84 83 77 78 82 89 89 92 109 108 116 120 49 285 38 39 345
162 162 164 169 169 166 165 163 154 146 158 156 156 156 157 155 150 147 143 142 142 141 143 140 142 135 136 133 132 133 134 133 129 134 130 128 111 106 113 111 106 109 112 114 117 109 118 107 101 93 82 98 99 81 82 108 121 117 117 3 28 8 357
163 165 167 170 170 166 161 154 155 155 156 156 157 159 158 154 150 145 143 146 145 148 148 147 149 144 145 144 142 141 143 141 143 144 138 135 128 125 117 119 126 125 119 110 112 115 112 110 106 104 108 105 100 90 74 108 118 105 122 90 264 359 336
164 167 169 170 169 163 154 155 157 155 152 155 160 157 154 152 147 150 149 149 152 150 150 149 150 153 151 148 144 145 146 143 141 143 140 140 143 140 136 127 140 134 123 109 101 96 86 100 104 107 104 99 103 98 86 84 91 129 136 106 0 134 283
166 167 168 167 164 156 159 153 156 153 153 160 160 152 154 153 150 155 157 158 157 157 157 155 153 153 148 146 145 146 149 146 145 145 147 152 150 144 144 140 144 129 121 115 119 123 132 116 118 112 108 104 100 99 76 80 82 91 109 118 148 271 280
167 167 165 163 161 162 160 159 157 157 161 162 160 163 160 163 162 159 158 160 157 157 157 159 160 157 152 144 141 144 146 147 150 153 159 153 145 151 142 138 141 140 134 135 145 140 135 130 124 117 116 111 109 96 91 80 89 96 101 112 137 56 0
166 166 164 161 160 159 161 160 158 162 166 163 163 164 165 159 162 158 159 156 159 158 158 160 158 155 152 150 151 148 149 150 156 161 157 146 146 139 136 139 147 151 144 143 144 149 143 134 133 138 138 132 124 106 101 102 102 100 108 118 70 105 337
164 164 161 158 158 159 158 158 160 157 159 164 169 169 166 165 156 156 159 161 160 155 156 160 160 158 157 158 154 155 156 158 159 154 139 141 140 137 144 151 155 156 149 152 148 155 145 143 138 132 149 126 123 110 114 118 105 110 114 94 106 46 354
161 160 158 153 152 156 162 159 156 159 166 167 169 168 159 152 151 154 158 160 159 158 161 169 169 164 161 163 159 158 161 159 158 150 144 139 139 142 149 154 155 153 156 159 158 156 159 152 145 142 164 132 122 116 115 111 118 114 105 114 102 43 47
159 153 155 159 160 158 158 158 156 163 169 168 164 159 157 157 159 160 161 164 162 163 170 170 176 172 167 162 163 158 155 159 156 153 149 145 149 159 159 157 165 162 161 159 158 156 154 155 153 151 154 141 133 124 128 128 131 134 130 116 148 117 43
160 161 160 158 157 158 160 159 158 165 167 164 162 161 158 159 164 166 166 166 168 170 172 178 175 172 170 163 159 159 159 160 156 152 155 156 161 168 172 168 159 154 151 150 147 148 145 144 142 141 143 147 147 140 134 129 144 154 141 152 165 126 162
161 161 156 157 158 162 160 159 159 166 165 164 163 158 163 169 166 166 165 165 169 173 176 179 171 173 171 169 164 159 156 157 157 158 158 157 156 156 158 143 127 127 141 147 143 135 131 132 134 135 134 134 137 135 146 145 147 134 143 139 154 196 164
160 161 164 157 159 160 162 159 161 166 171 169 157 164 172 164 170 168 166 167 174 175 176 175 171 174 174 173 166 153 156 155 157 162 161 158 155 154 152 144 138 142 167 158 144 142 141 145 150 148 143 139 139 144 147 148 147 152 162 145 160 190 190
165 164 160 159 161 163 163 164 167 169 165 161 165 167 166 170 167 171 171 172 171 173 176 175 173 175 176 173 165 154 153 158 160 161 162 159 157 161 163 159 159 165 192 159 149 154 152 153 153 138 126 129 156 173 171 178 173 159 166 167 162 180 227
166 166 162 159 163 167 166 163 166 169 168 169 170 171 171 172 174 172 173 168 164 173 188 171 175 177 177 171 165 152 149 152 154 157 160 162 165 165 165 158 165 169 180 176 177 170 161 166 155 147 136 136 173 202 196 199 197 193 192 192 186 206 211
163 165 160 159 161 165 166 167 169 168 166 169 171 164 166 166 170 176 174 165 165 180 183 174 177 178 175 171 161 153 153 155 158 157 161 166 161 160 146 126 137 186 209 205 200 186 176 159 149 146 136 129 107 149 216 225 209 199 195 190 196 207 215
164 165 163 161 162 162 165 167 166 162 166 170 167 170 170 174 176 171 169 171 176 180 179 181 180 177 176 169 161 152 155 149 157 162 167 167 163 179 181 176 188 190 192 203 198 189 183 160 151 155 150 134 134 123 139 250 210 207 208 201 210 224 234
164 167 164 166 160 162 165 163 167 168 170 168 171 171 166 163 169 173 172 178 180 177 189 181 180 180 176 173 168 160 159 156 162 173 181 179 176 193 199 196 198 198 189 198 190 186 188 170 166 169 159 146 149 158 200 244 275 196 211 219 225 234 239
165 165 165 161 156 159 167 166 161 162 167 168 167 161 161 160 165 175 183 181 176 175 176 178 182 180 179 177 169 155 160 161 161 161 166 196 203 199 208 216 206 197 196 192 185 188 190 182 172 179 176 156 173 191 210 191 165 172 220 114 240 317 307
169 164 159 151 154 160 153 149 154 159 156 159 155 158 166 166 170 180 175 166 168 175 169 172 186 186 181 179 171 166 160 150 163 183 193 193 195 212 216 225 213 201 202 190 188 190 195 187 178 180 162 169 178 208 207 184 199 174 203 205 232 249 248
134 141 146 143 150 146 149 151 149 152 152 148 144 148 165 171 166 160 156 164 170 166 171 177 188 183 181 181 183 167 178 182 181 182 187 197 197 196 208 213 225 207 208 200 193 193 194 196 188 175 185 188 196 198 149 180 208 198 203 220 253 274 279
162 162 157 150 144 144 145 147 154 154 149 151 155 157 163 165 160 155 156 164 168 169 179 183 177 185 182 186 191 184 177 192 185 182 186 196 204 211 208 207 211 212 204 203 200 196 197 198 199 194 210 217 206 155 168 197 175 173 208 213 235 285 315
154 155 155 156 145 143 144 149 154 152 153 153 154 155 162 165 160 158 160 166 154 168 174 181 178 180 189 188 195 198 192 188 185 181 187 194 198 207 208 209 212 205 198 202 202 201 199 201 198 216 221 219 201 183 171 157 167 172 197 213 249 283 301
157 156 158 153 148 147 152 154 155 159 158 155 155 158 166 167 160 156 159 159 164 179 186 171 175 178 182 189 193 202 204 195 181 187 186 197 192 198 203 207 203 191 195 201 203 203 204 197 203 219 221 215 200 180 178 168 185 207 195 203 246 284 277